User: anonymous   Login
Location: Unspecified
(0.0000°N, 0.0000°E)
Time: 07:30:04
(UTC+00:00)
Language:

LAPAN A3 - Orbit

View from above orbital plane
View from above orbital plane
View from above satellite
View from above satellite

Ground track
Ground track

The orbit data is extracted from the following two-line orbital elements,

1 41603U 16040E   17148.94733135 -.00000097 +00000-0 -13354-5 0  9990
2 41603 097.4615 211.1597 0014703 136.2486 329.4544 15.19336556051730
Epoch (UTC): 28 May 2017 22:44:09
Eccentricity: 0.0014703
inclination: 97.4615°
perigee height: 498 km
apogee height: 518 km
right ascension of ascending node: 211.1597°
argument of perigee: 136.2486°
revolutions per day: 15.19336556
mean anomaly at epoch: 329.4544°
orbit number at epoch: 5173

The dashed part of the orbit path shows where the satellite is in the earth's shadow,  

DLR